Tracking 23446 objects as of 19-Jun-2021
HD Live streaming from Space Station
objects crossing your sky now

COSMOS 1285 DEB

Track COSMOS 1285 DEB now!


NORAD ID: 26680
Int'l Code: 1981-071L
Perigee: 2,826.7 km
Apogee: 37,967.8 km
Inclination: 64.0 °
Period: 726.4 minutes
Semi major axis: 26768 km
RCS: 0.3981 m2 (medium)
Launch date: August 4, 1981
Source: Commonwealth of Independent States (former USSR) (CIS)
Launch site: PLESETSK MISSILE AND SPACE COMPLEX (PKMTR)

Note: This is SATELLITE DEBRIS
aabbcc
Your satellite tracking list
Your tracking list is empty




NASA's NSSDC Master Catalog

Two Line Element Set (TLE):
1 26680U 81071L   21161.29502085  .00000954  00000-0  00000-0 0  9999
2 26680  63.9668 228.0348 6563951  47.2486 351.9577  1.98231671171661
Source of the keplerian elements: AFSPC